SCP
4 5 7 7 5 4 2 1 1 1 2 2 2 1 1 1 1 1 1 1 1 0
6 5 5 4 4 4 2 1 2 2 2 2 1 1 1 1 1 1 1 1 1 1
2 2 3 4 3 4 5 4 4 3 2 2 1 1 2 1 1 1 1 1 1 1
1 1 1 2 2 2 2 2 2 2 2 2 2 2 2 2 1 1 2 1 0 1
0 0 0 0 0 0 0 1 1 1 1 1 1 1 2 1 1 1 1 1 1 1
0 0 0 0 0 0 0 0 0 0 0 0 0 0 1 1 1 1 1 1 1 1
0 0 0 0 0 0 0 0 0 0 0 0 0 0 0 0 0 0 0 1 1 1
0 0 0 0 0 0 0 0 0 0 0 0 0 0 0 0 0 0 0 0 0 0
0 0 0 0 0 0 0 0 0 0 0 0 0 0 0 0 0 0 0 0 0 0
0 0 0 0 0 0 0 0 0 0 0 0 0 0 0 0 0 0 0 0 0 0
0 0 0 0 0 0 0 0 0 0 0 0 0 0 0 0 0 0 0 0 0 0
0 0 0 0 0 0 0 0 0 0 0 0 0 0 0 0 0 0 0 0 0 0
0 0 0 0 0 0 0 0 0 0 0 0 0 0 0 0 0 0 0 0 0 0
0 0 0 0 0 0 0 0 0 0 0 0 0 0 0 0 0 0 0 0 0 0
Wind_Speed_500mb
25 34 43 28 34 30 29 32 33 43 45 35 31 30 32 33 33 34 35 35 35 35
26 26 21 24 32 24 31 25 43 41 41 42 40 41 41 41 41 41 42 44 46 48
10 11 18 17 31 32 30 37 16 22 33 38 41 45 47 52 52 52 52 55 57 59
9 9 6 10 17 26 36 38 47 41 35 34 39 49 53 58 61 62 61 58 62 67
11 16 19 26 29 34 40 43 45 46 48 47 49 52 54 61 69 71 73 75 76 81
11 18 23 29 33 36 40 43 45 47 48 54 57 59 62 65 63 67 72 78 81 86
19 27 33 35 38 41 43 45 48 49 52 54 55 58 61 64 69 73 74 70 75 79
27 30 34 38 43 49 53 56 57 59 59 60 61 63 59 61 66 69 72 76 79 77
36 39 41 46 51 54 53 53 53 56 59 66 68 65 65 70 78 82 87 94 96 95
43 46 48 49 49 50 52 56 58 63 66 70 69 64 64 70 76 85 91 91 88 87
47 49 49 49 52 56 61 62 58 55 54 58 61 60 69 77 82 86 90 93 95 97
48 52 56 59 57 57 63 69 73 75 79 84 90 90 88 87 89 92 94 94 95 95
53 53 54 57 63 71 76 83 90 91 86 88 90 84 78 79 85 89 89 89 86 84
52 60 65 74 81 85 86 92 86 76 66 63 63 62 57 55 58 58 59 60 58 54
Wind_Direction_500mb
244 243 226 225 213 204 212 236 234 224 227 227 235 239 246 254 264 268 266 265 269 274
227 226 218 238 221 203 218 231 223 227 238 251 252 247 254 259 260 262 267 268 273 275
141 148 201 180 204 208 213 214 199 228 247 258 262 260 253 254 259 261 262 268 272 275
147 195 232 243 236 233 233 231 234 236 239 245 255 265 263 261 262 263 261 261 264 266
224 232 243 248 246 247 251 254 255 256 258 257 255 257 263 264 261 260 260 261 262 264
302 280 273 274 279 279 278 276 275 272 267 264 262 260 259 262 268 270 267 269 268 266
303 297 298 296 294 290 286 282 278 275 272 270 267 265 264 264 266 266 268 269 271 270
299 294 290 286 282 282 283 284 285 283 280 277 275 274 276 276 274 271 270 267 267 269
300 297 294 293 293 294 294 291 287 282 279 276 275 273 270 267 269 271 271 270 268 266
299 298 297 296 292 290 288 284 281 280 281 284 286 288 280 274 272 270 271 273 274 274
301 300 299 296 291 288 286 287 288 284 278 274 271 268 267 268 271 272 273 274 275 276
303 301 299 297 296 287 280 278 278 277 278 278 279 280 283 283 280 277 275 274 273 275
304 303 295 285 283 281 282 284 287 289 289 288 287 286 287 285 282 279 277 278 278 278
294 287 286 283 283 287 290 289 288 288 291 295 295 293 291 287 284 284 284 284 284 285
Wind_Speed_850mb
25 34 43 28 34 30 29 32 33 43 45 35 31 30 32 33 33 34 35 35 35 35
26 26 21 24 32 24 31 25 43 41 41 42 40 41 41 41 41 41 42 44 46 48
10 11 18 17 31 32 30 37 16 22 33 38 41 45 47 52 52 52 52 55 57 59
9 9 6 10 17 26 36 38 47 41 35 34 39 49 53 58 61 62 61 58 62 67
11 16 19 26 29 34 40 43 45 46 48 47 49 52 54 61 69 71 73 75 76 81
11 18 23 29 33 36 40 43 45 47 48 54 57 59 62 65 63 67 72 78 81 86
19 27 33 35 38 41 43 45 48 49 52 54 55 58 61 64 69 73 74 70 75 79
27 30 34 38 43 49 53 56 57 59 59 60 61 63 59 61 66 69 72 76 79 77
36 39 41 46 51 54 53 53 53 56 59 66 68 65 65 70 78 82 87 94 96 95
43 46 48 49 49 50 52 56 58 63 66 70 69 64 64 70 76 85 91 91 88 87
47 49 49 49 52 56 61 62 58 55 54 58 61 60 69 77 82 86 90 93 95 97
48 52 56 59 57 57 63 69 73 75 79 84 90 90 88 87 89 92 94 94 95 95
53 53 54 57 63 71 76 83 90 91 86 88 90 84 78 79 85 89 89 89 86 84
52 60 65 74 81 85 86 92 86 76 66 63 63 62 57 55 58 58 59 60 58 54
Wind_Direction_850mb
244 243 226 225 213 204 212 236 234 224 227 227 235 239 246 254 264 268 266 265 269 274
227 226 218 238 221 203 218 231 223 227 238 251 252 247 254 259 260 262 267 268 273 275
141 148 201 180 204 208 213 214 199 228 247 258 262 260 253 254 259 261 262 268 272 275
147 195 232 243 236 233 233 231 234 236 239 245 255 265 263 261 262 263 261 261 264 266
224 232 243 248 246 247 251 254 255 256 258 257 255 257 263 264 261 260 260 261 262 264
302 280 273 274 279 279 278 276 275 272 267 264 262 260 259 262 268 270 267 269 268 266
303 297 298 296 294 290 286 282 278 275 272 270 267 265 264 264 266 266 268 269 271 270
299 294 290 286 282 282 283 284 285 283 280 277 275 274 276 276 274 271 270 267 267 269
300 297 294 293 293 294 294 291 287 282 279 276 275 273 270 267 269 271 271 270 268 266
299 298 297 296 292 290 288 284 281 280 281 284 286 288 280 274 272 270 271 273 274 274
301 300 299 296 291 288 286 287 288 284 278 274 271 268 267 268 271 272 273 274 275 276
303 301 299 297 296 287 280 278 278 277 278 278 279 280 283 283 280 277 275 274 273 275
304 303 295 285 283 281 282 284 287 289 289 288 287 286 287 285 282 279 277 278 278 278
294 287 286 283 283 287 290 289 288 288 291 295 295 293 291 287 284 284 284 284 284 285